Weather History for Lake Hood, AK

Change the Weather History Date:

Sunday, August 25, 2013

  Actual Average Record
Temperature  
Mean Temperature 54 °F -  
Max Temperature 66 °F 60 °F 71 °F (2010)
Min Temperature 43 °F 47 °F 43 °F (2013)
Degree Days  
Heating Degree Days 10    
Growing Degree Days 4 (Base 50)    
Moisture  
Dew Point 41 °F    
Average Humidity 59    
Maximum Humidity 86    
Minimum Humidity 42    
Precipitation  
Precipitation 0.00 in - - ()
Sea Level Pressure  
Sea Level Pressure 29.72 in    
Wind  
Wind Speed 4 mph (NNE)    
Max Wind Speed 10 mph    
Max Gust Speed -    
Visibility 9 miles    
Events      
Averages and records for this station are not official NWS values.
T = Trace of Precipitation, MM = Missing Value Source: NWS Daily Summary

Daily Weather History Graph

Daily Weather History Graph

Search for Another Location

Airport:

Trip Planner

Search our weather history database for the weather conditions in past years. The results will help you decide how hot, cold, wet, or windy it might be!

Date:

Astronomy

Aug. 25, 2013 Rise Set
Actual Time 6:35 AM AKDT 9:26 PM AKDT
Civil Twilight 5:45 AM AKDT 10:15 PM AKDT
Nautical Twilight 4:37 AM AKDT 11:22 PM AKDT
Astronomical Twilight 2:29 AM AKDT 1:17 AM AKDT
Moon 10:15 PM AKDT (8/25) 1:32 PM AKDT (8/25)
Length of Visible Light 16h 29m
Length of Day
14h 51m
Waning Gibbous, 74% of the Moon is Illuminated
Aug 25
Waning Gibbous
Aug 28
Last Quarter
Sep 5
New
Sep 12
First Quarter
Sep 19
Full

Hourly Weather History & Observations

Time (AKDT) Temp. Windchill Dew Point Humidity Pressure Visibility Wind Dir Wind Speed Gust Speed Precip Events Conditions
12:53 AM 55.0 °F - 39.0 °F 55% 29.71 in 10.0 mi NNW 10.4 mph - N/A   Clear
1:53 AM 52.0 °F - 37.9 °F 59% 29.72 in 10.0 mi NNE 5.8 mph - N/A   Clear
2:53 AM 52.0 °F - 39.0 °F 61% 29.72 in 10.0 mi NNE 9.2 mph - N/A   Clear
3:53 AM 51.1 °F - 37.9 °F 61% 29.73 in 10.0 mi NNE 3.5 mph - N/A   Clear
4:53 AM 48.0 °F - 37.9 °F 68% 29.75 in 10.0 mi Calm Calm - N/A   Clear
5:53 AM 43.0 °F 41.3 °F 37.9 °F 82% 29.75 in 10.0 mi ESE 3.5 mph - N/A   Clear
6:53 AM 46.0 °F - 37.9 °F 73% 29.75 in 10.0 mi Calm Calm - N/A   Clear
7:53 AM 46.9 °F - 39.9 °F 77% 29.75 in 10.0 mi Calm Calm - N/A   Clear
8:53 AM 51.1 °F - 39.0 °F 63% 29.75 in 10.0 mi Calm Calm - N/A   Clear
9:53 AM 55.0 °F - 37.9 °F 53% 29.74 in 10.0 mi Calm Calm - N/A   Clear
10:53 AM 55.9 °F - 37.9 °F 51% 29.74 in 10.0 mi NE 6.9 mph - N/A   Clear
11:53 AM 57.9 °F - 39.0 °F 49% 29.73 in 10.0 mi Calm Calm - N/A   Clear
12:53 PM 60.1 °F - 39.0 °F 46% 29.73 in 10.0 mi Calm Calm - N/A   Clear
1:53 PM 62.1 °F - 41.0 °F 46% 29.72 in 10.0 mi Variable 3.5 mph - N/A   Clear
2:53 PM 64.0 °F - 42.1 °F 45% 29.72 in 10.0 mi North 3.5 mph - N/A   Clear
3:53 PM 64.9 °F - 42.1 °F 43% 29.71 in 9.0 mi NNE 4.6 mph - N/A   Clear
4:53 PM 66.0 °F - 42.1 °F 42% 29.70 in 9.0 mi North 5.8 mph - N/A   Clear
5:53 PM 66.0 °F - 42.1 °F 42% 29.70 in 9.0 mi NNE 4.6 mph - N/A   Clear
6:53 PM 64.0 °F - 42.1 °F 45% 29.70 in 9.0 mi Calm Calm - N/A   Clear
7:53 PM 63.0 °F - 46.0 °F 54% 29.70 in 8.0 mi Calm Calm - N/A   Clear
8:53 PM 59.0 °F - 46.9 °F 64% 29.70 in 7.0 mi Calm Calm - N/A   Clear
9:53 PM 55.9 °F - 45.0 °F 67% 29.71 in 8.0 mi Calm Calm - N/A   Clear
10:53 PM 55.0 °F - 46.0 °F 72% 29.72 in 8.0 mi Calm Calm - N/A   Mostly Cloudy
11:53 PM 53.1 °F - 48.9 °F 86% 29.73 in 7.0 mi Calm Calm - N/A   Mostly Cloudy